Regional Weather Roundup
Issued by NWS

Home | Current Version | Previous Version | Graphics & Text | Print | Product List | Glossary On
Versions: 1 2 3 4 5 6 7 8 9 10 11 12 13 14 15 16 17 18 19 20 21 22 23 24 25 26 27 28 29 30 31 32 33 34 35 36 37 38 39 40 41 42 43 44 45 46 47 48 49 50
000
ASUS44 KMEG 271910
RWRTN
TENNESSEE HOURLY STATE WEATHER ROUNDUP
NATIONAL WEATHER SERVICE MEMPHIS TN
100 PM CST FRI FEB 27 2015

TNZ002-004-019-021-049-052-054-088>092-272000-
WEST TENNESSEE

CITY           SKY/WX    TMP DP  RH WIND       PRES   REMARKS
MEMPHIS INTL   PTSUNNY   33  14  45 N12       30.53F WCI  24
NWS MEMPHIS      N/A     30 N/A N/A MISG        N/A
JACKSON        SUNNY     31  12  45 NE9       30.54F WCI  23
DYERSBURG      PTSUNNY   25   7  46 NE10      30.60F WCI  15
UNION CITY     SUNNY     23  12  63 NE6       30.58F WCI  16
PARIS          SUNNY     25  10  54 NE7       30.54F WCI  17
LEXINGTON      SUNNY     30   3  31 N9        30.52F WCI  22
SAVANNAH       SUNNY     34  10  37 N7        30.51F WCI  28
$$

TNZ008-025-027-028-033-062-065-066-272000-
NORTH MIDDLE TENNESSEE

CITY           SKY/WX    TMP DP  RH WIND       PRES   REMARKS
NASHVILLE      MOSUNNY   31  11  43 N9        30.54F WCI  23
CLARKSVILLE    MOSUNNY   25  13  60 NE7       30.57F WCI  17
SMYRNA         SUNNY     32  10  40 N8        30.54F WCI  25
COOKEVILLE     SUNNY     28  14  54 NE8       30.46F WCI  20
CROSSVILLE     SUNNY     27  10  49 VRB5      30.42F WCI  22
$$

TNZ061-075-076-078-094-096-097-272000-
SOUTH MIDDLE TENNESSEE

CITY           SKY/WX    TMP DP  RH WIND       PRES   REMARKS
FAYETTEVILLE   SUNNY     28  14  54 NE10        N/A  WCI  19
TULLAHOMA      SUNNY     30  10  43 N3        30.46F
WINCHESTER     SUNNY     30  16  55 VRB7      30.47F WCI  23
MCMINNVILLE    SUNNY     30  12  47 NW10      30.46F WCI  21
COLUMBIA         N/A     32  12  43 VRB5      30.49F WCI  27
SHELBYVILLE    SUNNY     32  14  47 N9        30.50F WCI  24
$$

TNZ017-018-042-046-047-272000-
NORTHEAST TENNESSEE

CITY           SKY/WX    TMP DP  RH WIND       PRES   REMARKS
TRI CITIES     LGT SNOW  32  23  69 CALM      30.42F VSB 3/4
ELIZABETHTON   MIX PCPN  28  18  64 NW7       30.40F WCI  21
$$

TNZ012-013-036-069-073-074-272000-
CENTRAL EAST TENNESSEE

CITY           SKY/WX    TMP DP  RH WIND       PRES   REMARKS
KNOXVILLE      MOSUNNY   31  15  52 MISG      30.46F
OAK RIDGE        N/A     34  15  46 MISG      30.48S
GATLINBURG     PTCLDY    32  18  55 VRB5      30.44F WCI  27
MORRISTOWN     CLEAR     30  18  59 NW5       30.43F WCI  25
$$

TNZ083-085-099-272000-
SOUTHEAST TENNESSEE

CITY           SKY/WX    TMP DP  RH WIND       PRES   REMARKS
CHATTANOOGA    SUNNY     37  19  48 N8        30.45F WCI  31
$$

SKY/WX REPORTED AS FAIR MEANS FEW OR NO CLOUDS BELOW
12 THOUSAND FEET.



USA.gov is the U.S. government's official web portal to all federal, state and local government web resources and services.